Content
SEND FEEDBACK

Daily
Averages
Monthly
Summary
United Kingdom

LONDON, ENGLAND


Home > Europe > United Kingdom > England
Elevation: 203 feet     Latitude: 51 09N     Longitude: 000 11W

WEATHER
 
SELECT A DAY
Number of Records: 292,972;   Date Range: 7/1/96 - 7/29/14
 
SHARE

PRINT THIS DATA

[ ← Previous Day ]
WEATHER ALMANAC - APRIL 5, 2013
[ Next Day → ]
[ °C ]   °F
Weather ElementAverageHighLow
Temperature38.2 °F42.8 °F (2:50 pm)33.8 °F (12:50 am)
Dewpoint27.1 °F32 °F (11:50 am)21.2 °F (9:20 pm)
Humidity65.7 %81 % (12:50 am)46 % (2:50 pm)
Barometer29.95 in30.09 in (9:50 pm)29.86 in (3:20 am)
Wind Speed15 mph23 mph (1:50 pm)
Wind Gust34.5 mph (1:50 pm)
Weather ElementAverage
Visibility6.2 mi
Wind DirectionNNE (29.4 °)

Weather ElementTotal
Precipitation---
Heating Degree Days26.7 (Base 65)
Averaged from 47 records on April 5, 2013
WEATHER CONDITIONS BREAKOUT
WIND DIRECTION BREAKOUT
WEATHER BY HOUR - APRIL 5, 2013
[ °C ]   °F
Local TimeTemperatureDewpointHumidityBarometerVisibilityWind DirectionWind SpeedGust SpeedPrecipitationEventsConditions
12:50 AM33.8 °F28.4 °F81 %29.89 in6.2 miNorth (10°)13.8 mphOvercast
1:20 AM33.8 °F28.4 °F81 %29.89 in6.2 miNorth (10°)15.0 mphOvercast
1:50 AM33.8 °F28.4 °F81 %29.89 in5.6 miNorth (10°)13.8 mphSnowLight Snow
2:20 AM33.8 °F28.4 °F81 %29.89 in6.2 miNorth (10°)13.8 mphMostly Cloudy
2:50 AM33.8 °F28.4 °F81 %29.89 in6.2 miNorth (10°)13.8 mphScattered Clouds
3:20 AM33.8 °F28.4 °F81 %29.86 in6.2 miNNE (20°)12.7 mphScattered Clouds
3:50 AM35.6 °F28.4 °F75 %29.86 in6.2 miNNE (20°)13.8 mphMostly Cloudy
4:20 AM35.6 °F28.4 °F75 %29.86 in6.2 miNorth (10°)13.8 mphMostly Cloudy
4:50 AM35.6 °F30.2 °F81 %29.86 in6.2 miNNE (20°)12.7 mphMostly Cloudy
5:20 AM35.6 °F30.2 °F81 %29.86 in6.2 miNorth (10°)16.1 mphMostly Cloudy
5:50 AM35.6 °F30.2 °F81 %29.86 in6.2 miNorth (10°)12.7 mphMostly Cloudy
6:20 AM35.6 °F30.2 °F81 %29.86 in6.2 miNNE (20°)13.8 mphMostly Cloudy
6:50 AM35.6 °F30.2 °F81 %29.89 in6.2 miNNE (20°)13.8 mphScattered Clouds
7:20 AM37.4 °F30.2 °F75 %29.89 in6.2 miNNE (20°)17.3 mphMostly Cloudy
7:50 AM37.4 °F30.2 °F75 %29.89 in6.2 miNNE (20°)12.7 mphMostly Cloudy
8:20 AM37.4 °F30.2 °F75 %29.89 in6.2 miNNE (20°)16.1 mphMostly Cloudy
8:50 AM37.4 °F30.2 °F75 %29.89 in6.2 miNNE (20°)16.1 mphMostly Cloudy
9:20 AM37.4 °F30.2 °F75 %29.92 in6.2 miNNE (20°)18.4 mphMostly Cloudy
9:50 AM37.4 °F30.2 °F75 %29.92 in6.2 miNNE (20°)16.1 mphMostly Cloudy
10:20 AM37.4 °F30.2 °F75 %29.92 in6.2 miNNE (30°)16.1 mphMostly Cloudy
10:50 AM37.4 °F30.2 °F75 %29.92 in6.2 miNNE (30°)16.1 mphMostly Cloudy
11:20 AM39.2 °F30.2 °F70 %29.95 in6.2 miNE (40°)21.9 mphRainLight Rain
11:50 AM39.2 °F32.0 °F75 %29.95 in6.2 miNE (40°)16.1 mphRainLight Rain
12:20 PM39.2 °F30.2 °F70 %29.95 in6.2 miNNE (30°)15.0 mphMostly Cloudy
12:50 PM39.2 °F28.4 °F65 %29.95 in6.2 miNE (40°)21.9 mphMostly Cloudy
1:20 PM41.0 °F26.6 °F57 %29.95 in6.2 miNE (40°)18.4 mphMostly Cloudy
1:50 PM41.0 °F26.6 °F57 %29.95 in6.2 miNE (40°)23.0 mph34.5 mphMostly Cloudy
2:20 PM41.0 °F24.8 °F53 %29.95 in6.2 miNE (50°)20.7 mphMostly Cloudy
2:50 PM42.8 °F23.0 °F46 %29.95 in6.2 miNE (40°)19.6 mphMostly Cloudy
3:20 PM42.8 °F24.8 °F49 %29.95 in6.2 miNE (40°)20.7 mph33.4 mphScattered Clouds
3:50 PM42.8 °F24.8 °F49 %29.95 in6.2 miNE (50°)21.9 mphScattered Clouds
4:20 PM42.8 °F24.8 °F49 %29.98 in6.2 miENE (60°)18.4 mphScattered Clouds
4:50 PM42.8 °F24.8 °F49 %29.98 inENE (60°)18.4 mphClear
5:20 PM42.8 °F24.8 °F49 %29.98 inNE (50°)17.3 mphClear
5:50 PM42.8 °F24.8 °F49 %30.01 inENE (60°)16.1 mphClear
6:20 PM41.0 °F24.8 °F53 %30.01 inNE (50°)13.8 mphClear
6:50 PM41.0 °F24.8 °F53 %30.01 inENE (60°)11.5 mphClear
7:20 PM41.0 °F23.0 °F49 %30.04 inNE (50°)9.2 mphClear
7:50 PM41.0 °F23.0 °F49 %30.04 inNE (40°)9.2 mphClear
8:20 PM39.2 °F23.0 °F52 %30.06 inNE (40°)8.1 mphClear
8:50 PM39.2 °F23.0 °F52 %30.06 inNNE (30°)8.1 mphClear
9:20 PM39.2 °F21.2 °F49 %30.06 inNNE (20°)10.4 mphClear
9:50 PM37.4 °F21.2 °F52 %30.09 inNNE (20°)11.5 mphClear
10:20 PM37.4 °F21.2 °F52 %30.09 inNNE (20°)10.4 mphClear
10:50 PM37.4 °F24.8 °F60 %30.09 inNorth (10°)10.4 mphClear
11:20 PM37.4 °F26.6 °F65 %30.09 inNNE (20°)12.7 mphClear
11:50 PM35.6 °F28.4 °F75 %30.09 in6.2 miNNE (20°)13.8 mphPartly Cloudy
Hourly data recorded from EGKK, located miles away from London, England







STORIES FROM OUR PARTNERS